Location: Cannifist
(18.2333°N, 63.0167°W)
Time: 01:13:29
(UTC+00:00)

N. Korean satellite - Pass Details

Date: 21 June 2021
Orbit: 451 x 498 km, 97.2° (Epoch: 02 August)

Event Time Altitude Azimuth Distance (km) Brightness Sun altitude
Rises 08:51:39 0° 24° (NNE) 2,561 11.2 -10.5°
Reaches altitude 10° 08:53:52 10° 34° (NE) 1,684 10.4 -10.0°
Maximum altitude 08:57:09 32° 99° (E) 866 8.4 -9.3°
Drops below altitude 10° 09:00:27 10° 164° (SSE) 1,691 9.2 -8.6°
Sets 09:02:40 0° 174° (S) 2,573 10.0 -8.2°
